Lid_Strength_Index
1 0 0 1 1 0 0 1 2 1 2 2 1 2 2 2 2 3 4 1 1 -1 1 5 3 3 3 4 3 3 7 9 8 8 7 4 6 4 4 4 4 4 3 3 2
1 0 1 1 1 1 1 2 2 1 2 2 1 2 2 2 3 5 -1 -2 -1 -0 5 5 6 4 5 5 5 5 7 8 6 6 6 5 5 5 5 5 5 4 3 2 2
2 1 2 2 2 2 2 2 2 2 1 2 2 2 2 2 4 3 -2 -2 -1 0 2 3 4 4 6 5 5 5 7 6 5 5 5 6 5 4 5 6 5 5 4 3 3
1 2 2 2 2 2 2 2 2 2 2 2 2 2 2 3 8 2 -3 -3 -2 0 1 3 5 7 7 7 5 7 5 5 5 4 5 6 5 5 5 5 4 3 3 3 3
2 2 2 2 3 3 3 2 2 2 2 2 2 2 2 4 4 1 -3 -1 1 1 3 3 5 6 7 6 5 6 6 5 4 4 4 5 6 6 5 3 3 3 3 3 3
3 3 3 3 2 3 3 3 2 2 2 2 2 2 3 6 -0 1 1 1 1 2 3 3 4 4 6 6 6 5 6 5 5 5 4 6 6 5 5 3 4 4 3 3 3
3 3 3 2 2 3 3 3 3 3 2 2 2 2 4 4 3 -0 1 1 1 2 3 3 3 5 5 7 5 5 7 6 6 6 6 4 7 7 4 3 4 4 4 3 3
3 3 3 3 3 3 2 2 2 2 2 2 2 2 5 1 1 2 1 1 1 2 3 2 2 4 5 5 6 7 7 10 7 6 6 5 9 6 4 4 4 4 4 3 3
3 3 3 3 3 3 2 2 2 1 1 2 2 3 5 2 4 3 2 3 2 2 2 2 3 6 5 7 8 8 11 10 9 6 6 6 8 6 4 4 4 4 4 3 3
4 4 3 3 3 3 3 3 2 2 2 1 1 4 3 4 4 3 1 2 4 4 5 5 6 7 7 8 12 10 10 9 9 7 7 7 8 6 5 5 5 4 4 4 3
4 4 4 3 3 3 3 2 3 4 3 5 4 4 3 2 2 3 2 3 4 5 8 6 8 10 8 7 7 8 8 9 8 7 7 8 8 7 5 5 5 5 4 4 3
5 4 4 3 3 3 3 3 4 3 6 3 3 4 3 2 5 4 2 5 5 7 6 7 9 7 6 6 7 8 9 9 8 7 7 8 8 7 6 5 5 5 4 4 4
5 5 4 3 3 4 2 3 1 2 6 4 4 4 4 3 5 5 3 4 6 7 7 8 7 6 7 8 8 8 9 9 9 7 7 8 9 8 6 5 5 4 4 4 4
5 5 4 4 4 1 2 1 2 1 8 7 6 5 4 4 6 2 2 4 5 7 7 7 6 7 8 9 8 10 7 8 8 9 12 8 13 9 7 7 6 5 4 4 3
5 5 5 5 3 3 2 1 2 2 16 6 6 3 4 5 4 4 3 4 7 7 6 8 7 8 8 8 7 9 7 8 8 10 10 10 12 10 7 8 7 5 5 4 4
6 6 5 3 2 1 1 1 2 10 16 8 6 7 7 6 5 4 4 3 4 6 6 7 5 6 7 6 6 6 8 8 8 9 13 11 11 11 9 8 7 6 5 4 4
6 6 6 3 4 1 1 3 10 14 7 9 8 6 7 7 6 6 6 7 8 10 10 8 8 6 6 8 7 7 9 14 16 15 15 10 12 10 7 6 6 6 5 4 3
7 7 5 3 2 1 3 6 14 9 8 6 7 7 8 7 7 7 7 9 7 8 10 13 14 9 7 8 10 9 9 14 19 18 16 12 14 10 6 6 5 5 5 4 3
7 3 3 1 1 2 5 11 11 8 7 8 8 9 8 7 7 8 8 8 7 7 11 12 12 8 7 6 8 10 11 8 13 14 16 13 11 7 7 6 6 6 5 4 4
7 4 3 1 1 3 7 10 8 6 7 7 11 9 10 9 9 8 9 7 8 6 6 9 12 8 7 7 7 8 7 13 12 18 18 13 13 13 9 8 6 6 5 4 4
6 6 3 1 3 6 10 8 7 6 7 9 10 10 9 9 8 9 9 7 7 7 6 9 10 10 8 11 12 11 10 9 10 14 19 18 14 9 9 7 7 6 5 4 4
7 8 3 3 10 7 8 8 9 8 7 8 8 8 8 8 9 9 9 9 6 7 11 8 10 13 11 7 7 8 10 11 17 17 14 15 14 7 7 7 6 6 5 4 4
8 7 3 4 10 10 8 9 8 9 9 9 9 8 7 8 10 8 8 5 6 6 8 7 11 16 13 10 9 11 10 9 10 11 15 18 15 7 6 7 6 6 5 4 4
8 10 7 7 7 9 10 10 10 8 9 9 9 8 8 8 7 8 8 6 5 6 6 6 9 12 15 12 12 14 12 10 10 15 14 13 11 9 8 8 7 7 6 5 4
7 9 8 11 10 9 9 10 11 10 9 9 10 9 9 10 9 9 7 7 6 6 6 7 11 10 9 9 9 11 11 10 11 10 13 11 10 8 7 7 7 7 6 5 5
9 10 9 10 8 9 10 10 10 10 11 11 10 9 8 9 8 9 8 7 8 6 7 6 12 10 12 10 9 10 9 9 9 9 9 9 10 6 6 6 6 6 6 6 5
7 7 9 10 10 10 10 11 11 11 10 9 9 9 9 7 6 5 5 5 6 7 8 8 11 12 15 10 10 12 10 10 10 9 10 13 10 7 7 7 7 6 6 7 5